Voltar ao catálogo

THORAD AGENA D DEB

AtivoPO
NORAD 4682·DEBRIS·🇺🇸 United States

Lançado Apr 8, 1970 de Vandenberg Space Force Base

Loading…

Próximas Passagens (próximas 24 horas)

TLE

AtualizadoSource: Space-Track

Época: Sep 14, 2026, 12:27 UTC

1 04682U 70025BF  26257.51922873  .00000146  00000-0  41367-3 0  9998
2 04682  99.7389 263.4585 0143549 304.4480 210.5359 13.24566084719910

Acompanhe THORAD AGENA D DEB em tempo real com AllMySat

Download on the App Store